Weather in Araguaina

Brazil     7°14′36″S   48°08′17″W
temp.,
°C
wind,
m/s
gust,
m/s
humid.,
%
clouds,
%
prec.,
mm/h
press.,
hPa
HPBL,
m
21 april, wed
wed2100:00+22w119699 2.3 101317
03:00+23nw1193100 4.8 101111
06:00+21nnw259899 3.4 1012157
09:00+23nnw259398 5.9 1015341
12:00+25nnw368694 1.7 1013633
15:00+25nnw238794 2.3 1011480
18:00+23ne2295100 0.0 101180
21:00+22n1296100 1.3 101346
22 april, thu
thu2200:00+23wnw1195100 0.0 101316
03:00+22wsw1195100 0.1 101117
06:00+22sw119865 1.1 101338
09:00+25ssw128688 4.8 1015314
12:00+25sw118531 3.4 1013326
15:00+29ssw116558 3.8 10101226
18:00+25sw1285100 1.1 101026
21:00+24sse2393100 1.3 101279
23 april, fri
fri2300:00+23se1195100 2.1 101320
03:00+22sw2296100 3.4 101186
06:00+22wnw0094100 0.4 101214
09:00+26ssw1179100 0.5 1014409
12:00+30ene0167100 1.6 10121012
15:00+29s116540 4.3 10091143
18:00+26ese118383 0.8 100912
21:00+25ene018679 2.1 101111
24 april, sat
sat2400:00+24ene119091 0.1 101111
03:00+23e119398 0.3 101026
06:00+23e1194100 0.1 101222
09:00+25e3686100 2.6 1014393
12:00+25nne138693 2.1 1013255
15:00+28nnw327141 2.5 10101031
18:00+25nnw228899 0.6 100928
21:00+23nnw119588 0.6 101116
25 april, sun
sun2500:00+23n119696 0.0 101211
03:00+22wnw009817 2.4 101012
06:00+22n119814 0.0 101121
09:00+26ne1183100 2.9 1013166
12:00+28n227397 5.4 1012870
15:00+28ene2275100 8.0 1009869
18:00+25ese228879 0.5 100939
21:00+24ene2288100 0.7 101130